FW5486 Weather Reports


Display with metric or nautical units.
time (UTC)temp
F
wind
direction
speed
MPH
gust
MPH
rain 1hr
in
rain 24hr
in
rain mn
in
humidity
%
barometer
mb
20260901064640 80 104 4.0 8.0 0.00 0.19 0.00 87 1016.7
20260901064137 80 74 4.0 8.0 0.00 0.19 0.00 86 1016.6
20260901063636 80 106 3.0 8.0 0.00 0.19 0.00 86 1016.6
20260901063138 80 128 3.0 8.0 0.00 0.19 0.00 86 1016.6
20260901062638 80 98 4.0 10.0 0.00 0.19 0.00 86 1016.6
20260901062138 80 100 5.0 10.0 0.00 0.19 0.00 86 1016.7
20260901061638 80 89 4.0 11.0 0.00 0.19 0.00 86 1016.7
20260901061137 80 114 4.0 11.0 0.00 0.19 0.00 86 1016.8
20260901060907 80 117 5.0 11.0 0.00 0.19 0.00 86 1016.8
20260901060134 80 110 5.0 11.0 0.00 0.19 0.00 86 1016.7
20260901055632 80 104 4.0 11.0 0.00 0.19 0.00 86 1016.7
20260901055134 79 97 4.0 9.0 0.00 0.19 0.00 86 1016.7
20260901054632 79 116 4.0 9.0 0.00 0.19 0.00 86 1016.7
20260901054131 79 103 5.0 9.0 0.00 0.19 0.00 86 1016.6
20260901053858 79 98 4.0 9.0 0.00 0.19 0.00 87 1016.7
20260901053128 79 93 4.0 8.0 0.00 0.19 0.00 87 1016.8
20260901052626 79 111 4.0 8.0 0.00 0.19 0.00 87 1016.8
20260901052128 79 91 3.0 8.0 0.00 0.19 0.00 88 1016.8
20260901051625 78 117 2.0 6.0 0.00 0.19 0.00 88 1016.8
20260901051127 78 92 2.0 4.0 0.00 0.19 0.00 88 1016.9
20260901050620 78 85 2.0 6.0 0.00 0.19 0.00 88 1016.9
20260901050122 78 95 3.0 6.0 0.00 0.19 0.00 88 1016.9
20260901045620 78 76 3.0 4.0 0.00 0.19 0.19 87 1017.0
20260901045121 79 60 2.0 4.0 0.00 0.19 0.19 87 1017.0
20260901044851 79 71 2.0 4.0 0.00 0.19 0.19 87 1016.9
20260901044118 79 77 2.0 4.0 0.00 0.19 0.19 87 1016.9
20260901043614 79 86 2.0 4.0 0.00 0.19 0.19 87 1017.0
20260901043115 79 91 2.0 4.0 0.00 0.19 0.19 86 1016.9
20260901042619 79 119 2.0 4.0 0.00 0.19 0.19 86 1016.9
20260901042613 79 99 2.0 4.0 0.00 0.19 0.19 86 1016.9
20260901041613 79 126 2.0 3.0 0.00 0.19 0.19 86 1016.9
20260901041113 79 94 2.0 3.0 0.00 0.19 0.19 86 1016.9
20260901040610 79 88 2.0 3.0 0.00 0.19 0.19 86 1016.8
20260901040110 79 84 2.0 5.0 0.00 0.19 0.19 85 1016.8
20260901035611 80 92 2.0 5.0 0.00 0.19 0.19 85 1016.8
20260901035109 80 103 2.0 4.0 0.00 0.19 0.19 85 1016.7
20260901034607 80 92 2.0 6.0 0.00 0.19 0.19 85 1016.8
20260901034107 80 121 2.0 6.0 0.00 0.19 0.19 85 1016.9
20260901033603 80 105 2.0 6.0 0.00 0.19 0.19 85 1017.0
20260901033104 80 117 2.0 6.0 0.00 0.19 0.19 85 1017.0
20260901032605 80 84 2.0 6.0 0.00 0.19 0.19 85 1017.0
20260901032105 80 93 2.0 6.0 0.00 0.19 0.19 85 1017.0
20260901031604 80 107 2.0 5.0 0.00 0.19 0.19 85 1016.8
20260901031100 80 112 2.0 4.0 0.00 0.19 0.19 85 1016.9
20260901030827 80 123 2.0 4.0 0.00 0.19 0.19 85 1016.8
20260901030055 80 111 2.0 4.0 0.00 0.19 0.19 85 1016.8
20260901025557 80 129 2.0 3.0 0.00 0.19 0.19 85 1016.6
20260901025057 80 115 2.0 3.0 0.00 0.19 0.19 84 1016.6
20260901024558 80 120 1.0 3.0 0.00 0.19 0.19 84 1016.6
20260901024054 80 79 1.0 3.0 0.00 0.19 0.19 84 1016.5
20260901023551 80 85 2.0 4.0 0.00 0.19 0.19 84 1016.5
20260901023322 81 105 3.0 7.0 0.00 0.19 0.19 83 1016.5
20260901022551 81 106 2.0 7.0 0.00 0.19 0.19 83 1016.5
20260901022051 81 59 2.0 5.0 0.00 0.19 0.19 83 1016.4
20260901021548 81 89 2.0 5.0 0.00 0.19 0.19 83 1016.4
20260901021050 81 72 2.0 6.0 0.00 0.19 0.19 82 1016.3
20260901020544 81 105 2.0 6.0 0.00 0.19 0.19 82 1016.4
20260901020045 81 104 1.0 3.0 0.00 0.19 0.19 82 1016.3
20260901015543 81 85 2.0 4.0 0.00 0.19 0.19 82 1016.3
20260901015045 81 108 2.0 4.0 0.00 0.19 0.19 81 1016.2
20260901014543 81 88 2.0 4.0 0.00 0.19 0.19 81 1016.0
20260901014043 81 101 2.0 5.0 0.00 0.19 0.19 80 1015.9
20260901013537 81 82 2.0 5.0 0.00 0.19 0.19 80 1015.9
20260901013305 82 72 3.0 7.0 0.00 0.19 0.19 79 1015.8
20260901012811 82 76 2.0 4.0 0.00 0.19 0.19 79 1015.9
20260901012532 82 79 2.0 7.0 0.00 0.19 0.19 79 1015.9
20260901011802 82 72 2.0 6.0 0.00 0.19 0.19 79 1015.8
20260901011026 83 98 2.0 6.0 0.00 0.19 0.19 79 1015.8
20260901010527 83 102 2.0 6.0 0.00 0.19 0.19 78 1015.8
20260901010027 83 108 3.0 6.0 0.00 0.19 0.19 78 1015.9
20260901005524 83 90 2.0 6.0 0.00 0.19 0.19 78 1015.9
20260901005023 83 90 1.0 4.0 0.00 0.19 0.19 78 1015.9
20260901004522 83 76 2.0 6.0 0.00 0.19 0.19 78 1016.0
20260901004022 83 89 2.0 6.0 0.00 0.19 0.19 77 1016.0
20260901003753 84 84 3.0 9.0 0.00 0.19 0.19 77 1016.0
20260901003019 84 46 3.0 9.0 0.00 0.19 0.19 76 1016.0
20260901002521 84 75 3.0 7.0 0.00 0.19 0.19 76 1016.0
20260901002018 84 118 3.0 7.0 0.00 0.19 0.19 77 1015.9
20260901001517 84 93 2.0 7.0 0.00 0.19 0.19 76 1016.0
20260901001018 85 86 3.0 6.0 0.00 0.19 0.19 77 1016.0
20260901000512 85 78 3.0 8.0 0.00 0.19 0.19 76 1016.0
20260901000015 85 82 3.0 9.0 0.00 0.19 0.19 76 1015.9
20260831235514 85 96 4.0 9.0 0.00 0.19 0.19 76 1015.9
20260831235013 85 132 4.0 9.0 0.00 0.19 0.19 75 1015.9
20260831234514 85 82 4.0 9.0 0.00 0.19 0.19 75 1016.0
20260831234014 85 100 4.0 8.0 0.00 0.19 0.19 75 1016.1
20260831233740 85 92 4.0 10.0 0.00 0.19 0.19 74 1016.1
20260831233010 86 111 5.0 10.0 0.00 0.20 0.19 74 1016.1
20260831232740 85 99 5.0 10.0 0.00 0.22 0.19 75 1016.1
20260831232009 86 110 4.0 10.0 0.00 0.32 0.19 75 1016.1
20260831231741 86 102 4.0 7.0 0.00 0.47 0.19 76 1016.1
20260831231010 86 118 4.0 7.0 0.00 0.47 0.19 76 1016.2
20260831230745 86 111 4.0 7.0 0.00 0.47 0.19 77 1016.1
20260831230505 86 135 3.0 7.0 0.00 0.47 0.19 77 1016.2
20260831225739 86 98 5.0 9.0 0.00 0.47 0.19 77 1016.2
20260831225231 86 130 5.0 9.0 0.00 0.47 0.19 76 1016.3
20260831224504 86 128 2.0 7.0 0.00 0.47 0.19 76 1016.5
20260831224459 86 136 3.0 8.0 0.00 0.47 0.19 76 1016.4
20260831223500 86 171 3.0 7.0 0.00 0.47 0.19 76 1016.3
20260831223000 86 130 3.0 7.0 0.00 0.47 0.19 76 1016.3
20260831222730 86 145 4.0 9.0 0.00 0.47 0.19 75 1016.3
20260831221956 86 138 5.0 10.0 0.00 0.47 0.19 74 1016.3
20260831221456 87 131 7.0 15.0 0.00 0.47 0.19 73 1016.4
20260831220956 89 128 7.0 15.0 0.00 0.47 0.19 70 1016.4
20260831220456 90 71 6.0 12.0 0.00 0.47 0.19 67 1016.3
20260831215954 90 125 5.0 11.0 0.00 0.47 0.19 66 1016.2
20260831215724 90 79 5.0 11.0 0.00 0.47 0.19 67 1016.2
20260831214950 89 79 7.0 13.0 0.00 0.47 0.19 69 1016.1
20260831214450 88 90 4.0 13.0 0.00 0.47 0.19 69 1016.1
20260831213948 87 93 1.0 8.0 0.00 0.47 0.19 77 1016.1
20260831213444 87 82 1.0 4.0 0.00 0.47 0.19 76 1016.1
20260831212943 87 346 1.0 4.0 0.00 0.47 0.19 77 1016.0
20260831212715 87 161 0.0 3.0 0.00 0.47 0.19 77 1016.1
20260831211941 87 29 1.0 8.0 0.00 0.47 0.19 77 1016.1
20260831211713 87 336 1.0 8.0 0.00 0.47 0.19 78 1016.1
20260831210941 86 77 1.0 2.0 0.00 0.47 0.19 76 1016.3
20260831210441 86 77 1.0 3.0 0.00 0.47 0.19 75 1016.4
20260831205942 86 49 0.0 3.0 0.00 0.47 0.19 76 1016.5
20260831205442 85 49 0.0 2.0 0.00 0.47 0.19 77 1016.7
20260831204943 85 142 1.0 2.0 0.00 0.47 0.19 77 1016.8
20260831204708 85 64 1.0 3.0 0.00 0.47 0.19 77 1016.9
20260831203938 84 54 1.0 3.0 0.00 0.47 0.19 76 1016.9
20260831203438 84 130 2.0 6.0 0.00 0.47 0.19 76 1017.0
20260831202938 84 59 2.0 6.0 0.00 0.47 0.19 78 1017.0
20260831202436 83 102 1.0 3.0 0.00 0.47 0.19 79 1017.0
20260831202207 83 98 1.0 2.0 0.00 0.47 0.19 81 1016.9
20260831201429 82 165 0.0 2.0 0.00 0.47 0.19 82 1017.0
20260831201158 82 5 0.0 2.0 0.00 0.47 0.19 84 1016.9
20260831200426 82 5 0.0 2.0 0.00 0.47 0.19 85 1016.9
20260831195924 81 5 0.0 2.0 0.00 0.47 0.19 84 1017.0
20260831195423 81 5 1.0 8.0 0.00 0.47 0.19 86 1017.1
20260831194920 81 5 2.0 8.0 0.00 0.47 0.19 84 1017.1
20260831194419 81 94 3.0 8.0 0.00 0.47 0.19 83 1017.3
20260831194150 81 74 5.0 13.0 0.00 0.47 0.19 81 1017.4
20260831193651 81 113 5.0 13.0 0.00 0.47 0.19 80 1017.3
20260831192917 82 111 6.0 17.0 0.00 0.47 0.19 78 1017.3
20260831192418 84 157 8.0 24.0 0.01 0.47 0.19 76 1017.2
20260831191915 86 101 4.0 24.0 0.17 0.47 0.19 73 1017.3
20260831191414 87 80 1.0 3.0 0.19 0.47 0.19 77 1017.0
20260831190915 86 66 1.0 4.0 0.19 0.47 0.19 80 1017.3
20260831190414 85 71 2.0 4.0 0.19 0.47 0.19 79 1017.3
20260831185911 85 22 2.0 4.0 0.19 0.47 0.19 83 1017.3
20260831185413 84 12 1.0 4.0 0.19 0.47 0.19 87 1017.3
20260831184909 83 81 0.0 4.0 0.19 0.47 0.19 87 1017.3
20260831184409 83 72 0.0 2.0 0.19 0.47 0.19 87 1017.4
20260831183910 83 72 0.0 2.0 0.19 0.47 0.19 88 1017.4
20260831183408 83 71 0.0 11.0 0.19 0.47 0.19 86 1017.5
20260831182905 84 134 2.0 11.0 0.19 0.47 0.19 82 1017.5
20260831182405 86 163 6.0 12.0 0.15 0.43 0.18 79 1017.6
20260831181900 88 103 6.0 12.0 0.02 0.30 0.04 75 1017.7
20260831181357 88 23 5.0 12.0 0.00 0.28 0.00 72 1017.4
20260831180856 87 355 3.0 11.0 0.00 0.28 0.00 72 1017.4
20260831180354 87 11 2.0 9.0 0.00 0.28 0.00 73 1017.6
20260831175853 89 78 2.0 9.0 0.00 0.28 0.00 70 1017.6
20260831175352 89 355 2.0 11.0 0.00 0.28 0.00 71 1017.6
20260831174849 89 57 3.0 11.0 0.00 0.28 0.00 71 1017.6
20260831174622 89 76 4.0 11.0 0.00 0.28 0.00 70 1017.7
20260831173849 88 75 4.0 11.0 0.00 0.28 0.00 72 1017.8
20260831173348 87 96 3.0 10.0 0.00 0.28 0.00 72 1017.9
20260831172847 87 54 3.0 8.0 0.00 0.28 0.00 72 1018.0
20260831172346 88 71 3.0 8.0 0.00 0.28 0.00 71 1017.9
20260831171845 88 84 4.0 9.0 0.00 0.28 0.00 70 1018.0
20260831171616 89 75 4.0 9.0 0.00 0.28 0.00 70 1018.0
20260831171117 89 19 4.0 8.0 0.00 0.28 0.00 70 1018.0
20260831170344 89 355 5.0 8.0 0.00 0.28 0.00 71 1018.1
20260831165845 88 98 4.0 9.0 0.00 0.28 0.00 73 1018.1
20260831165347 87 67 5.0 9.0 0.00 0.28 0.00 72 1018.1
20260831164843 87 98 5.0 9.0 0.00 0.28 0.00 72 1018.2
20260831164344 87 74 5.0 11.0 0.00 0.28 0.00 73 1018.1
20260831164114 88 49 5.0 11.0 0.00 0.28 0.00 71 1018.2
20260831163342 88 128 6.0 12.0 0.00 0.28 0.00 73 1018.2
20260831162842 88 66 5.0 12.0 0.00 0.28 0.00 71 1018.2
20260831162343 87 89 5.0 11.0 0.00 0.28 0.00 73 1018.3
20260831161838 87 74 5.0 11.0 0.00 0.28 0.00 72 1018.3
20260831161340 87 67 4.0 9.0 0.00 0.28 0.00 74 1018.2
20260831161111 87 71 4.0 12.0 0.00 0.28 0.00 73 1018.3
20260831160338 87 71 4.0 12.0 0.00 0.28 0.00 75 1018.5
20260831155839 87 88 4.0 9.0 0.00 0.28 0.00 74 1018.4
20260831155339 87 49 6.0 12.0 0.00 0.28 0.00 75 1018.4
20260831154834 87 92 6.0 12.0 0.00 0.28 0.00 73 1018.4
20260831154336 86 114 5.0 11.0 0.00 0.28 0.00 77 1018.4
20260831153835 86 91 5.0 10.0 0.00 0.28 0.00 78 1018.5
20260831153334 85 66 4.0 10.0 0.00 0.28 0.00 78 1018.5
20260831152849 85 98 3.0 9.0 0.00 0.28 0.00 78 1018.6
20260831152335 85 64 4.0 12.0 0.00 0.28 0.00 78 1018.6
20260831151830 85 57 4.0 12.0 0.00 0.28 0.00 79 1018.6
20260831151600 85 67 3.0 9.0 0.00 0.28 0.00 80 1018.7
20260831150830 85 74 4.0 9.0 0.00 0.28 0.00 79 1018.7
20260831150330 85 86 5.0 9.0 0.00 0.28 0.00 80 1018.6
20260831145826 84 98 4.0 9.0 0.00 0.28 0.00 82 1018.7
20260831145326 84 76 4.0 11.0 0.00 0.28 0.00 83 1018.6
20260831144824 84 142 4.0 11.0 0.00 0.28 0.00 82 1018.6
20260831144324 84 80 3.0 10.0 0.00 0.28 0.00 83 1018.6
20260831144054 83 56 3.0 9.0 0.00 0.28 0.00 84 1018.5
20260831143323 83 25 4.0 9.0 0.00 0.28 0.00 84 1018.5
20260831143049 83 60 3.0 8.0 0.00 0.28 0.00 84 1018.5
20260831142317 83 65 3.0 7.0 0.00 0.28 0.00 85 1018.4
20260831141818 83 83 3.0 7.0 0.00 0.28 0.00 85 1018.3
20260831141317 82 76 3.0 6.0 0.00 0.28 0.00 86 1018.3
20260831141049 82 61 2.0 6.0 0.00 0.28 0.00 87 1018.3
20260831140316 82 87 2.0 4.0 0.00 0.28 0.00 87 1018.3
20260831135810 81 88 3.0 7.0 0.00 0.28 0.00 88 1018.3
20260831135307 81 94 4.0 7.0 0.00 0.28 0.00 88 1018.2
20260831134807 80 71 3.0 8.0 0.00 0.28 0.00 88 1018.3
20260831134541 80 98 2.0 7.0 0.00 0.28 0.00 89 1018.1
20260831134305 80 76 3.0 8.0 0.00 0.28 0.00 88 1018.1
20260831133533 79 82 3.0 7.0 0.00 0.28 0.00 89 1018.0
20260831132802 79 63 3.0 8.0 0.00 0.28 0.00 90 1017.9
20260831132302 79 71 4.0 8.0 0.00 0.28 0.00 90 1017.9
20260831131800 79 44 4.0 8.0 0.00 0.28 0.00 90 1017.9
20260831131301 78 67 2.0 6.0 0.00 0.28 0.00 90 1017.7
20260831130802 78 68 2.0 5.0 0.00 0.28 0.00 91 1017.7
20260831130302 78 22 2.0 5.0 0.00 0.28 0.00 91 1017.7
20260831125754 78 60 2.0 3.0 0.00 0.28 0.00 92 1017.7
20260831125258 77 45 2.0 5.0 0.00 0.28 0.00 92 1017.6
20260831125253 78 68 1.0 4.0 0.00 0.28 0.00 92 1017.6
20260831124301 77 13 2.0 5.0 0.00 0.28 0.00 93 1017.6
20260831123750 76 62 1.0 3.0 0.00 0.28 0.00 93 1017.7
20260831123247 76 74 1.0 3.0 0.00 0.28 0.00 93 1017.7
20260831123016 76 36 1.0 2.0 0.00 0.28 0.00 93 1017.7
20260831122244 76 33 1.0 3.0 0.00 0.28 0.00 93 1017.6
20260831121745 76 57 1.0 3.0 0.00 0.28 0.00 93 1017.7
20260831121242 76 56 1.0 3.0 0.00 0.28 0.00 93 1017.6
20260831120743 76 28 0.0 2.0 0.00 0.28 0.00 93 1017.4
20260831120237 75 44 0.0 2.0 0.00 0.28 0.00 93 1017.5
20260831115736 75 53 0.0 2.0 0.00 0.28 0.00 93 1017.4
20260831115237 75 22 0.0 3.0 0.00 0.28 0.00 93 1017.5
20260831114737 75 22 0.0 3.0 0.00 0.28 0.00 93 1017.4
20260831114236 76 11 0.0 2.0 0.00 0.28 0.00 93 1017.4
20260831113737 76 55 0.0 2.0 0.00 0.28 0.00 93 1017.4
20260831113502 76 55 0.0 2.0 0.00 0.28 0.00 93 1017.3
20260831112727 76 55 1.0 2.0 0.00 0.28 0.00 93 1017.3
20260831112227 76 76 1.0 3.0 0.00 0.28 0.00 93 1017.2
20260831111725 76 19 1.0 4.0 0.00 0.28 0.00 93 1017.1
20260831111225 76 36 1.0 4.0 0.00 0.28 0.00 93 1017.1
20260831110717 76 76 1.0 4.0 0.00 0.28 0.00 93 1017.0
20260831110215 76 34 1.0 3.0 0.00 0.28 0.00 93 1017.0
20260831105716 76 34 1.0 3.0 0.00 0.28 0.00 93 1016.9
20260831105215 76 26 1.0 3.0 0.00 0.28 0.00 93 1017.0
20260831104715 76 15 1.0 3.0 0.00 0.28 0.00 93 1016.9
20260831104214 76 5 0.0 3.0 0.00 0.28 0.00 93 1016.9
20260831103708 76 22 0.0 3.0 0.00 0.28 0.00 93 1016.8
20260831103208 76 30 0.0 2.0 0.00 0.28 0.00 93 1016.8
20260831102708 76 30 0.0 2.0 0.00 0.28 0.00 93 1016.8
20260831102209 76 30 1.0 3.0 0.00 0.28 0.00 93 1016.7
20260831101709 76 30 1.0 3.0 0.00 0.28 0.00 93 1016.7
20260831101210 76 30 1.0 2.0 0.00 0.28 0.00 93 1016.7
20260831100707 76 24 1.0 2.0 0.00 0.28 0.00 93 1016.7
20260831100205 76 24 1.0 3.0 0.00 0.28 0.00 93 1016.6
20260831095701 76 24 1.0 3.0 0.00 0.28 0.00 93 1016.6
20260831095434 76 90 0.0 2.0 0.00 0.28 0.00 93 1016.6
20260831094702 76 90 0.0 0.0 0.00 0.28 0.00 93 1016.7
20260831094433 76 90 0.0 0.0 0.00 0.28 0.00 93 1016.6
20260831093659 76 90 0.0 0.0 0.00 0.28 0.00 93 1016.7
20260831093158 76 90 0.0 0.0 0.00 0.28 0.00 93 1016.6
20260831092657 76 90 0.0 0.0 0.00 0.28 0.00 93 1016.6
20260831092153 76 90 0.0 0.0 0.00 0.28 0.00 93 1016.6
20260831091654 76 90 0.0 0.0 0.00 0.28 0.00 93 1016.5
20260831091154 76 90 0.0 0.0 0.00 0.28 0.00 93 1016.6
20260831090647 76 90 0.0 0.0 0.00 0.28 0.00 93 1016.6
20260831090415 76 90 0.0 0.0 0.00 0.28 0.00 93 1016.6
20260831085646 76 90 0.0 0.0 0.00 0.28 0.00 93 1016.5
20260831085144 76 90 0.0 0.0 0.00 0.28 0.00 93 1016.5
20260831084915 76 90 0.0 0.0 0.00 0.28 0.00 92 1016.5
20260831084415 76 90 0.0 0.0 0.00 0.28 0.00 92 1016.5
20260831083916 77 90 0.0 0.0 0.00 0.28 0.00 92 1016.6
20260831083144 77 90 0.0 0.0 0.00 0.28 0.00 92 1016.5
20260831082915 77 90 0.0 0.0 0.00 0.28 0.00 92 1016.5
20260831082145 77 90 0.0 0.0 0.00 0.28 0.00 92 1016.5
20260831081916 77 90 0.0 0.0 0.00 0.28 0.00 92 1016.5
20260831081144 77 90 0.0 0.0 0.00 0.28 0.00 92 1016.6
20260831080642 77 90 0.0 0.0 0.00 0.28 0.00 92 1016.5
20260831080415 77 90 0.0 0.0 0.00 0.28 0.00 92 1016.5
20260831075911 77 90 0.0 0.0 0.00 0.28 0.00 92 1016.4
20260831075139 77 90 0.0 2.0 0.00 0.28 0.00 92 1016.4
20260831074641 77 90 1.0 2.0 0.00 0.28 0.00 92 1016.5
20260831074140 77 90 1.0 2.0 0.00 0.28 0.00 92 1016.6
20260831073643 77 90 0.0 2.0 0.00 0.28 0.00 92 1016.6
20260831073639 77 90 1.0 2.0 0.00 0.28 0.00 92 1016.6
20260831072638 77 100 0.0 0.0 0.00 0.28 0.00 92 1016.7
20260831072137 77 80 0.0 0.0 0.00 0.28 0.00 92 1016.8
20260831071633 77 121 0.0 0.0 0.00 0.28 0.00 92 1016.8
20260831071130 78 121 0.0 0.0 0.00 0.28 0.00 92 1016.8
20260831070628 78 121 0.0 0.0 0.00 0.28 0.00 92 1016.9
20260831070126 78 121 0.0 0.0 0.00 0.28 0.00 92 1016.9
20260831065625 78 126 0.0 0.0 0.00 0.28 0.00 92 1017.0
20260831065119 78 126 0.0 0.0 0.00 0.28 0.00 92 1016.9